Flughafen Braunschweig-Wolfsburg

Aus VATSIM Germany
Dies ist die bestätigte sowie die neueste Version dieser Seite.
Wechseln zu:Navigation, Suche
UnderCon icon.svg.pngDieser Artikel ist noch im Aufbau. Der Artikel kann daher unvollständig sein oder Fehler enthalten!


Braunschweig Wolfsburg Airport
ICAO / IATA EDVE / BWE
Koordinaten N52°19′9″  E010°33′22″
Höhe 90 m / 295 ft
Wetter EDVE 262120Z AUTO 25012KT 9999 // BKN010/// OVC030/// 03/01 Q1025
Pisten
Platzfrequenzen
Nur für Flugsimulationszwecke!



Informationen für Piloten und Lotsen
Pilotenbriefing

Standard Operating Procedures (SOP)

Letters of Agreement (LoAs)

Airport Charts